This is the latest recevied weather packets stored in our database for station/object W5ITZ. If no packets are shown the sender has not sent any weather packets the latest 10 day(s).
| Time | Temp. | Humidity | Pressure | Rain* | Wind** | Luminosity | Snow |
|---|---|---|---|---|---|---|---|
| 1778030443 | 25° C | 89% | 1007 hPa | 0 mm | - | 0 W/m² | - |
| 1778030141 | 25.56° C | 89% | 1007.1 hPa | 0 mm | - | 0 W/m² | - |
| 1778029837 | 25.56° C | 88% | 1006.9 hPa | 0 mm | - | 0 W/m² | - |
| 1778029531 | 25.56° C | 88% | 1006.8 hPa | 0 mm | - | 1 W/m² | - |
| 1778029227 | 25.56° C | 88% | 1006.8 hPa | 0 mm | - | 2 W/m² | - |
| 1778028924 | 25.56° C | 87% | 1006.7 hPa | 0 mm | - | 5 W/m² | - |
| 1778028620 | 25.56° C | 87% | 1006.7 hPa | 0 mm | - | 10 W/m² | - |
| 1778028318 | 25.56° C | 86% | 1006.7 hPa | 0 mm | - | 11 W/m² | - |
| 1778028014 | 25.56° C | 87% | 1006.7 hPa | 0 mm | - | 12 W/m² | - |
| 1778027710 | 25.56° C | 87% | 1006.6 hPa | 0 mm | - | 16 W/m² | - |
| 1778027406 | 25.56° C | 87% | 1006.7 hPa | 0 mm | - | 31 W/m² | - |
| 1778027103 | 25.56° C | 87% | 1006.8 hPa | 0 mm | - | 44 W/m² | - |
| 1778026798 | 25.56° C | 86% | 1006.7 hPa | 0 mm | - | 40 W/m² | - |
| 1778026495 | 25.56° C | 86% | 1006.7 hPa | 0 mm | - | 42 W/m² | - |
| 1778026192 | 25.56° C | 86% | 1006.8 hPa | 0 mm | - | 55 W/m² | - |
| 1778025890 | 26.11° C | 86% | 1006.5 hPa | 0 mm | - | 44 W/m² | - |
| 1778025586 | 26.11° C | 85% | 1006.5 hPa | 0 mm | - | 36 W/m² | - |
| 1778025285 | 26.11° C | 85% | 1006.7 hPa | 0 mm | - | 46 W/m² | - |
| 1778024981 | 26.11° C | 85% | 1006.5 hPa | 0 mm | - | 52 W/m² | - |
| 1778024679 | 26.11° C | 85% | 1006.4 hPa | 0 mm | - | 43 W/m² | - |
| 1778024375 | 26.11° C | 85% | 1006.5 hPa | 0 mm | - | 54 W/m² | - |
| 1778024073 | 26.11° C | 85% | 1006.5 hPa | 0 mm | - | 62 W/m² | - |
| 1778023770 | 26.11° C | 85% | 1006.6 hPa | 0 mm | - | 83 W/m² | - |
| 1778023468 | 26.11° C | 84% | 1006.5 hPa | 0 mm | - | 94 W/m² | - |
| 1778023165 | 26.11° C | 84% | 1006.8 hPa | 0 mm | - | 72 W/m² | - |
* Rain latest hour (hover to see other rain measurements)
** Current wind speed in m/s (hover to see current wind gust speed)